Time,TemperatureF,DewpointF,PressureIn,WindDirection,WindDirectionDegrees,WindSpeedMPH,WindSpeedGustMPH,Humidity,HourlyPrecipIn,Conditions,Clouds,dailyrainin,SoftwareType,DateUTC
2013-03-25 09:12:00,45.2,40.0,30.05,SE,146,9.0,-999.0,82,-99.99,,,0.00,weatherlink.com 1.10,2013-03-25 16:12:00,
2013-03-25 09:30:00,45.8,40.0,30.05,ESE,116,4.0,-999.0,80,-99.99,,,0.00,weatherlink.com 1.10,2013-03-25 16:30:00,
2013-03-25 09:46:00,46.3,40.0,30.04,SE,136,9.0,-999.0,78,-99.99,,,0.00,weatherlink.com 1.10,2013-03-25 16:46:00,
2013-03-25 10:01:00,46.8,39.0,30.05,East,97,10.0,-999.0,75,-99.99,,,0.00,weatherlink.com 1.10,2013-03-25 17:01:00,
2013-03-25 10:16:00,46.3,39.0,30.04,East,101,12.0,-999.0,76,-99.99,,,0.00,weatherlink.com 1.10,2013-03-25 17:16:00,
2013-03-25 10:31:00,46.1,39.0,30.04,ESE,103,13.0,-999.0,76,-99.99,,,0.00,weatherlink.com 1.10,2013-03-25 17:31:00,
2013-03-25 10:46:00,46.0,40.0,30.04,East,84,9.0,-999.0,78,-99.99,,,0.00,weatherlink.com 1.10,2013-03-25 17:46:00,
2013-03-25 11:01:00,46.1,40.0,30.05,ESE,107,11.0,-999.0,79,-99.99,,,0.00,weatherlink.com 1.10,2013-03-25 18:01:00,
2013-03-25 11:16:00,46.2,39.0,30.04,East,94,11.0,-999.0,76,-99.99,,,0.00,weatherlink.com 1.10,2013-03-25 18:16:00,
2013-03-25 11:31:00,46.7,38.0,30.04,ESE,102,11.0,-999.0,71,-99.99,,,0.00,weatherlink.com 1.10,2013-03-25 18:31:00,
2013-03-25 12:16:00,48.8,37.0,30.02,East,92,4.0,-999.0,63,-99.99,,,0.00,weatherlink.com 1.10,2013-03-25 19:16:00,
2013-03-25 12:31:00,49.5,35.0,30.02,East,86,9.0,-999.0,57,-99.99,,,0.00,weatherlink.com 1.10,2013-03-25 19:31:00,
2013-03-25 12:46:00,48.4,33.0,30.02,ENE,75,12.0,-999.0,56,-99.99,,,0.00,weatherlink.com 1.10,2013-03-25 19:46:00,
2013-03-25 13:16:00,50.3,32.0,30.01,East,84,8.0,-999.0,50,-99.99,,,0.00,weatherlink.com 1.10,2013-03-25 20:16:00,
2013-03-25 13:46:00,50.8,33.0,30.00,East,83,7.0,-999.0,51,-99.99,,,0.00,weatherlink.com 1.10,2013-03-25 20:46:00,
2013-03-25 14:16:00,52.6,30.0,29.98,ESE,113,10.0,-999.0,43,-99.99,,,0.00,weatherlink.com 1.10,2013-03-25 21:16:00,
2013-03-25 14:31:00,51.9,31.0,29.98,East,82,5.0,-999.0,45,-99.99,,,0.00,weatherlink.com 1.10,2013-03-25 21:31:00,
2013-03-25 14:46:00,51.3,31.0,29.98,ENE,77,9.0,-999.0,46,-99.99,,,0.00,weatherlink.com 1.10,2013-03-25 21:46:00,
2013-03-25 15:16:00,53.6,33.0,29.97,East,99,6.0,-999.0,45,-99.99,,,0.00,weatherlink.com 1.10,2013-03-25 22:16:00,
2013-03-25 15:31:00,54.1,31.0,29.97,ESE,104,8.0,-999.0,42,-99.99,,,0.00,weatherlink.com 1.10,2013-03-25 22:31:00,
2013-03-25 15:46:00,54.1,31.0,29.96,East,99,10.0,-999.0,41,-99.99,,,0.00,weatherlink.com 1.10,2013-03-25 22:46:00,
2013-03-25 16:01:00,53.6,31.0,29.96,ENE,69,5.0,-999.0,43,-99.99,,,0.00,weatherlink.com 1.10,2013-03-25 23:01:00,
2013-03-25 16:16:00,53.7,28.0,29.95,SE,132,6.0,-999.0,38,-99.99,,,0.00,weatherlink.com 1.10,2013-03-25 23:16:00,
2013-03-25 16:31:00,53.9,30.0,29.95,SE,126,6.0,-999.0,41,-99.99,,,0.00,weatherlink.com 1.10,2013-03-25 23:31:00,
2013-03-25 16:46:00,53.9,30.0,29.94,ESE,103,2.0,-999.0,40,-99.99,,,0.00,weatherlink.com 1.10,2013-03-25 23:46:00,
2013-03-25 17:16:00,53.9,32.0,29.93,East,99,4.0,-999.0,43,-99.99,,,0.00,weatherlink.com 1.10,2013-03-26 00:16:00,
2013-03-25 17:31:00,54.1,34.0,29.93,SE,137,4.0,-999.0,46,-99.99,,,0.00,weatherlink.com 1.10,2013-03-26 00:31:00,
2013-03-25 17:46:00,53.9,33.0,29.93,ESE,115,7.0,-999.0,46,-99.99,,,0.00,weatherlink.com 1.10,2013-03-26 00:46:00,
2013-03-25 18:01:00,53.7,35.0,29.92,East,86,3.0,-999.0,50,-99.99,,,0.00,weatherlink.com 1.10,2013-03-26 01:01:00,
2013-03-25 18:16:00,53.6,35.0,29.93,SE,132,3.0,-999.0,49,-99.99,,,0.00,weatherlink.com 1.10,2013-03-26 01:16:00,
2013-03-25 18:32:00,53.2,33.0,29.93,East,96,0.0,-999.0,47,-99.99,,,0.00,weatherlink.com 1.10,2013-03-26 01:32:00,
2013-03-25 18:47:00,52.9,34.0,29.92,ESE,109,0.0,-999.0,49,-99.99,,,0.00,weatherlink.com 1.10,2013-03-26 01:47:00,
2013-03-25 19:02:00,52.9,32.0,29.92,SE,124,3.0,-999.0,45,-99.99,,,0.00,weatherlink.com 1.10,2013-03-26 02:02:00,
2013-03-25 19:17:00,52.6,32.0,29.93,SE,142,0.0,-999.0,45,-99.99,,,0.00,weatherlink.com 1.10,2013-03-26 02:17:00,
2013-03-25 19:32:00,52.1,32.0,29.93,SSE,159,0.0,-999.0,47,-99.99,,,0.00,weatherlink.com 1.10,2013-03-26 02:32:00,
2013-03-25 19:47:00,51.0,33.0,29.93,SSW,211,0.0,-999.0,50,-99.99,,,0.00,weatherlink.com 1.10,2013-03-26 02:47:00,
2013-03-25 20:02:00,50.3,32.0,29.93,SSW,206,0.0,-999.0,50,-99.99,,,0.00,weatherlink.com 1.10,2013-03-26 03:02:00,
2013-03-25 20:17:00,49.6,32.0,29.93,SSW,207,0.0,-999.0,51,-99.99,,,0.00,weatherlink.com 1.10,2013-03-26 03:17:00,
2013-03-25 20:32:00,49.6,31.0,29.93,WSW,243,1.0,-999.0,50,-99.99,,,0.00,weatherlink.com 1.10,2013-03-26 03:32:00,
2013-03-25 20:47:00,49.2,32.0,29.93,WSW,251,3.0,-999.0,51,-99.99,,,0.00,weatherlink.com 1.10,2013-03-26 03:47:00,
2013-03-25 21:02:00,46.9,35.0,29.93,WSW,253,2.0,-999.0,63,-99.99,,,0.00,weatherlink.com 1.10,2013-03-26 04:02:00,
2013-03-25 21:17:00,46.5,35.0,29.93,WSW,253,0.0,-999.0,65,-99.99,,,0.00,weatherlink.com 1.10,2013-03-26 04:17:00,
2013-03-25 21:46:00,44.5,37.0,29.93,West,260,0.0,-999.0,75,-99.99,,,0.00,weatherlink.com 1.10,2013-03-26 04:46:00,
2013-03-25 22:02:00,43.9,37.0,29.94,WSW,255,3.0,-999.0,78,-99.99,,,0.00,weatherlink.com 1.10,2013-03-26 05:02:00,
2013-03-25 22:17:00,42.9,37.0,29.94,WSW,250,4.0,-999.0,81,-99.99,,,0.00,weatherlink.com 1.10,2013-03-26 05:17:00,
2013-03-25 22:32:00,42.3,38.0,29.94,WSW,252,2.0,-999.0,83,-99.99,,,0.00,weatherlink.com 1.10,2013-03-26 05:32:00,
2013-03-25 22:46:00,42.2,38.0,29.94,WSW,254,4.0,-999.0,85,-99.99,,,0.00,weatherlink.com 1.10,2013-03-26 05:46:00,
2013-03-25 23:01:00,41.9,38.0,29.95,WSW,250,4.0,-999.0,86,-99.99,,,0.00,weatherlink.com 1.10,2013-03-26 06:01:00,
2013-03-25 23:16:00,41.8,38.0,29.94,WSW,249,4.0,-999.0,87,-99.99,,,0.00,weatherlink.com 1.10,2013-03-26 06:16:00,
2013-03-25 23:31:00,42.0,38.0,29.95,WSW,252,4.0,-999.0,87,-99.99,,,0.00,weatherlink.com 1.10,2013-03-26 06:31:00,
2013-03-25 23:46:00,41.7,38.0,29.95,WSW,250,4.0,-999.0,87,-99.99,,,0.00,weatherlink.com 1.10,2013-03-26 06:46:00,